| time (UTC) | temp F | wind direction | speed MPH | gust MPH | rain 1hr in | rain 24hr in | rain mn in | humidity % | barometer mb |
| 20260904030009 | 57 | 0 | 0.0 | 0.0 | 0.00 | 0.00 | 0.00 | 56 | 1021.6 |
| 20260904025410 | 58 | 0 | 0.0 | 0.0 | 0.00 | 0.00 | 0.00 | 58 | 1021.6 |
| 20260904024508 | 58 | 0 | 0.0 | 0.0 | 0.00 | 0.00 | 0.00 | 54 | 1021.6 |
| 20260904023630 | 59 | 0 | 0.0 | 0.0 | 0.00 | 0.00 | 0.00 | 58 | 1021.6 |
| 20260904022708 | 59 | 0 | 0.0 | 0.0 | 0.00 | 0.00 | 0.00 | 58 | 1021.6 |
| 20260904021809 | 59 | 0 | 0.0 | 0.0 | 0.00 | 0.00 | 0.00 | 57 | 1021.6 |
| 20260904020929 | 60 | 0 | 0.0 | 0.0 | 0.00 | 0.00 | 0.00 | 56 | 1021.6 |
| 20260904020009 | 61 | 0 | 0.0 | 0.0 | 0.00 | 0.00 | 0.00 | 55 | 1021.1 |
| 20260904015411 | 61 | 0 | 0.0 | 0.0 | 0.00 | 0.00 | 0.00 | 56 | 1021.1 |
| 20260904014508 | 62 | 233 | 1.0 | 2.0 | 0.00 | 0.00 | 0.00 | 54 | 1021.1 |
| 20260904013630 | 63 | 233 | 1.0 | 3.0 | 0.00 | 0.00 | 0.00 | 49 | 1021.1 |
| 20260904012709 | 63 | 233 | 1.0 | 2.0 | 0.00 | 0.00 | 0.00 | 49 | 1021.1 |
| 20260904011829 | 64 | 0 | 0.0 | 0.0 | 0.00 | 0.00 | 0.00 | 50 | 1021.1 |
| 20260904010908 | 64 | 0 | 0.0 | 0.0 | 0.00 | 0.00 | 0.00 | 50 | 1021.1 |
| 20260904010009 | 65 | 0 | 0.0 | 0.0 | 0.00 | 0.00 | 0.00 | 46 | 1020.7 |
| 20260904005408 | 65 | 0 | 0.0 | 0.0 | 0.00 | 0.00 | 0.00 | 52 | 1020.7 |
| 20260904004508 | 66 | 0 | 0.0 | 0.0 | 0.00 | 0.00 | 0.00 | 49 | 1020.7 |
| 20260904003609 | 67 | 211 | 1.0 | 4.0 | 0.00 | 0.00 | 0.00 | 45 | 1020.7 |
| 20260904002707 | 68 | 195 | 0.0 | 4.0 | 0.00 | 0.00 | 0.00 | 38 | 1020.7 |
| 20260904001809 | 70 | 0 | 0.0 | 0.0 | 0.00 | 0.00 | 0.00 | 37 | 1020.7 |
| 20260904000908 | 71 | 330 | 2.0 | 4.0 | 0.00 | 0.00 | 0.00 | 33 | 1020.7 |
| 20260904000030 | 68 | 189 | 2.0 | 7.0 | 0.00 | 0.00 | 0.00 | 33 | 1020.7 |
| 20260903235408 | 67 | 234 | 1.0 | 3.0 | 0.00 | 0.00 | 0.00 | 37 | 1020.7 |
| 20260903234507 | 67 | 257 | 1.0 | 3.0 | 0.00 | 0.00 | 0.00 | 44 | 1020.7 |
| 20260903233609 | 68 | 284 | 0.0 | 3.0 | 0.00 | 0.00 | 0.00 | 37 | 1020.7 |
| 20260903232728 | 69 | 241 | 1.0 | 3.0 | 0.00 | 0.00 | 0.00 | 38 | 1020.7 |
| 20260903231808 | 72 | 171 | 2.0 | 5.0 | 0.00 | 0.00 | 0.00 | 29 | 1020.7 |
| 20260903230907 | 70 | 148 | 1.0 | 6.0 | 0.00 | 0.00 | 0.00 | 33 | 1020.7 |
| 20260903230029 | 70 | 58 | 1.0 | 3.0 | 0.00 | 0.00 | 0.00 | 32 | 1020.7 |
| 20260903225408 | 70 | 75 | 2.0 | 4.0 | 0.00 | 0.00 | 0.00 | 33 | 1020.7 |
| 20260903224507 | 72 | 105 | 2.0 | 7.0 | 0.00 | 0.00 | 0.00 | 34 | 1020.7 |
| 20260903223608 | 72 | 111 | 2.0 | 8.0 | 0.00 | 0.00 | 0.00 | 31 | 1020.7 |
| 20260903222707 | 73 | 128 | 1.0 | 6.0 | 0.00 | 0.00 | 0.00 | 31 | 1020.7 |
| 20260903221808 | 73 | 56 | 2.0 | 6.0 | 0.00 | 0.02 | 0.00 | 31 | 1020.7 |
| 20260903220907 | 73 | 94 | 3.0 | 11.0 | 0.00 | 0.02 | 0.00 | 29 | 1020.7 |
| 20260903220008 | 74 | 101 | 4.0 | 11.0 | 0.00 | 0.02 | 0.00 | 30 | 1020.4 |
| 20260903215429 | 74 | 103 | 4.0 | 11.0 | 0.00 | 0.02 | 0.00 | 30 | 1020.4 |
| 20260903214507 | 74 | 96 | 3.0 | 8.0 | 0.00 | 0.02 | 0.00 | 31 | 1020.4 |
| 20260903213608 | 75 | 109 | 3.0 | 7.0 | 0.00 | 0.02 | 0.00 | 30 | 1020.4 |
| 20260903212707 | 75 | 110 | 3.0 | 9.0 | 0.00 | 0.02 | 0.00 | 29 | 1020.4 |
| 20260903211808 | 75 | 115 | 4.0 | 10.0 | 0.00 | 0.02 | 0.00 | 30 | 1020.4 |
| 20260903210907 | 75 | 112 | 3.0 | 10.0 | 0.00 | 0.02 | 0.00 | 28 | 1020.4 |
| 20260903210008 | 76 | 121 | 3.0 | 9.0 | 0.00 | 0.02 | 0.00 | 26 | 1020.7 |
| 20260903205408 | 75 | 112 | 3.0 | 7.0 | 0.00 | 0.02 | 0.00 | 24 | 1020.7 |
| 20260903204506 | 76 | 108 | 3.0 | 8.0 | 0.00 | 0.02 | 0.00 | 23 | 1020.7 |
| 20260903203609 | 77 | 120 | 3.0 | 8.0 | 0.00 | 0.02 | 0.00 | 20 | 1020.7 |
| 20260903202707 | 78 | 93 | 3.0 | 8.0 | 0.00 | 0.02 | 0.00 | 24 | 1020.7 |
| 20260903201807 | 79 | 50 | 3.0 | 9.0 | 0.00 | 0.02 | 0.00 | 19 | 1020.7 |
| 20260903200907 | 79 | 41 | 3.0 | 9.0 | 0.00 | 0.02 | 0.00 | 17 | 1020.7 |
| 20260903200029 | 78 | 52 | 3.0 | 9.0 | 0.00 | 0.02 | 0.00 | 20 | 1022.2 |
| 20260903195407 | 78 | 334 | 2.0 | 6.0 | 0.00 | 0.02 | 0.00 | 22 | 1022.2 |
| 20260903194506 | 78 | 38 | 2.0 | 10.0 | 0.00 | 0.02 | 0.00 | 21 | 1022.2 |
| 20260903193608 | 78 | 309 | 3.0 | 9.0 | 0.00 | 0.02 | 0.00 | 23 | 1022.2 |
| 20260903192727 | 77 | 311 | 3.0 | 11.0 | 0.00 | 0.02 | 0.00 | 19 | 1022.2 |
| 20260903191809 | 79 | 103 | 4.0 | 15.0 | 0.00 | 0.02 | 0.00 | 18 | 1022.2 |
| 20260903190906 | 77 | 81 | 4.0 | 15.0 | 0.00 | 0.02 | 0.00 | 19 | 1022.2 |
| 20260903190017 | 78 | 53 | 3.0 | 10.0 | 0.00 | 0.02 | 0.00 | 19 | 1022.2 |
| 20260903185408 | 78 | 45 | 3.0 | 9.0 | 0.00 | 0.02 | 0.00 | 24 | 1022.2 |
| 20260903184506 | 78 | 87 | 3.0 | 10.0 | 0.00 | 0.02 | 0.00 | 21 | 1022.2 |
| 20260903183607 | 78 | 64 | 4.0 | 10.0 | 0.00 | 0.02 | 0.00 | 23 | 1022.2 |
| 20260903182706 | 77 | 81 | 3.0 | 9.0 | 0.00 | 0.02 | 0.00 | 22 | 1022.2 |
| 20260903181810 | 77 | 78 | 3.0 | 10.0 | 0.00 | 0.02 | 0.00 | 25 | 1022.2 |
| 20260903180928 | 76 | 44 | 2.0 | 6.0 | 0.00 | 0.02 | 0.00 | 26 | 1022.2 |
| 20260903180023 | 75 | 72 | 1.0 | 5.0 | 0.00 | 0.02 | 0.00 | 25 | 1022.7 |
| 20260903175407 | 75 | 91 | 1.0 | 4.0 | 0.00 | 0.02 | 0.00 | 30 | 1022.7 |
| 20260903174506 | 75 | 109 | 2.0 | 6.0 | 0.00 | 0.02 | 0.00 | 27 | 1022.7 |
| 20260903173607 | 74 | 34 | 3.0 | 10.0 | 0.00 | 0.02 | 0.00 | 25 | 1022.7 |
| 20260903172706 | 74 | 72 | 2.0 | 7.0 | 0.00 | 0.02 | 0.00 | 27 | 1022.7 |
| 20260903171807 | 74 | 98 | 3.0 | 9.0 | 0.00 | 0.02 | 0.00 | 30 | 1022.7 |
| 20260903170906 | 73 | 45 | 2.0 | 10.0 | 0.00 | 0.02 | 0.00 | 31 | 1022.7 |
| 20260903170007 | 72 | 98 | 2.0 | 7.0 | 0.00 | 0.02 | 0.00 | 32 | 1022.6 |
| 20260903165407 | 72 | 70 | 2.0 | 7.0 | 0.00 | 0.02 | 0.00 | 31 | 1022.6 |
| 20260903164506 | 71 | 38 | 2.0 | 10.0 | 0.00 | 0.02 | 0.00 | 33 | 1022.6 |
| 20260903163628 | 71 | 94 | 3.0 | 11.0 | 0.00 | 0.02 | 0.00 | 31 | 1022.6 |
| 20260903162706 | 69 | 86 | 3.0 | 7.0 | 0.00 | 0.02 | 0.00 | 34 | 1022.6 |
| 20260903161807 | 68 | 57 | 2.0 | 8.0 | 0.00 | 0.02 | 0.00 | 36 | 1022.6 |
| 20260903160907 | 66 | 59 | 3.0 | 7.0 | 0.00 | 0.02 | 0.00 | 39 | 1022.6 |
| 20260903160007 | 63 | 26 | 2.0 | 5.0 | 0.00 | 0.02 | 0.00 | 44 | 1023.3 |
| 20260903155407 | 62 | 44 | 2.0 | 6.0 | 0.00 | 0.02 | 0.00 | 45 | 1023.3 |
| 20260903154506 | 59 | 132 | 1.0 | 4.0 | 0.00 | 0.02 | 0.00 | 55 | 1023.3 |
| 20260903153608 | 56 | 135 | 1.0 | 4.0 | 0.00 | 0.02 | 0.00 | 62 | 1023.3 |
| 20260903152706 | 53 | 147 | 0.0 | 3.0 | 0.00 | 0.02 | 0.00 | 73 | 1023.3 |
| 20260903151807 | 51 | 148 | 0.0 | 1.0 | 0.00 | 0.02 | 0.00 | 80 | 1023.3 |
| 20260903150906 | 49 | 0 | 0.0 | 0.0 | 0.00 | 0.02 | 0.00 | 84 | 1023.3 |
| 20260903150007 | 48 | 0 | 0.0 | 0.0 | 0.00 | 0.02 | 0.00 | 84 | 1023.3 |
| 20260903145407 | 48 | 0 | 0.0 | 0.0 | 0.00 | 0.02 | 0.00 | 84 | 1023.3 |
| 20260903144506 | 47 | 0 | 0.0 | 0.0 | 0.00 | 0.02 | 0.00 | 84 | 1023.3 |
| 20260903143627 | 46 | 0 | 0.0 | 0.0 | 0.00 | 0.02 | 0.00 | 85 | 1023.3 |
| 20260903142705 | 46 | 0 | 0.0 | 0.0 | 0.00 | 0.02 | 0.00 | 85 | 1023.3 |
| 20260903141808 | 45 | 0 | 0.0 | 0.0 | 0.00 | 0.02 | 0.00 | 85 | 1023.3 |
| 20260903140905 | 45 | 0 | 0.0 | 0.0 | 0.00 | 0.02 | 0.00 | 85 | 1023.3 |
| 20260903140006 | 44 | 0 | 0.0 | 0.0 | 0.00 | 0.02 | 0.00 | 85 | 1022.4 |
| 20260903135406 | 44 | 0 | 0.0 | 0.0 | 0.00 | 0.02 | 0.00 | 86 | 1022.4 |
| 20260903134506 | 44 | 0 | 0.0 | 0.0 | 0.00 | 0.02 | 0.00 | 85 | 1022.4 |
| 20260903133627 | 44 | 0 | 0.0 | 0.0 | 0.00 | 0.02 | 0.00 | 84 | 1022.4 |
| 20260903132705 | 44 | 0 | 0.0 | 0.0 | 0.00 | 0.02 | 0.00 | 84 | 1022.4 |
| 20260903131806 | 44 | 0 | 0.0 | 0.0 | 0.00 | 0.02 | 0.00 | 84 | 1022.4 |
| 20260903130905 | 44 | 0 | 0.0 | 0.0 | 0.00 | 0.02 | 0.00 | 84 | 1022.4 |
| 20260903130028 | 44 | 0 | 0.0 | 0.0 | 0.00 | 0.02 | 0.00 | 84 | 1022.4 |
| 20260903125406 | 44 | 0 | 0.0 | 0.0 | 0.00 | 0.02 | 0.00 | 83 | 1022.4 |
| 20260903124526 | 44 | 0 | 0.0 | 0.0 | 0.00 | 0.02 | 0.00 | 83 | 1022.4 |
| 20260903123606 | 44 | 0 | 0.0 | 0.0 | 0.00 | 0.02 | 0.00 | 83 | 1022.4 |
| 20260903122705 | 44 | 0 | 0.0 | 0.0 | 0.00 | 0.02 | 0.00 | 82 | 1022.4 |
| 20260903121807 | 44 | 0 | 0.0 | 0.0 | 0.00 | 0.02 | 0.00 | 82 | 1022.4 |
| 20260903120905 | 44 | 0 | 0.0 | 0.0 | 0.00 | 0.02 | 0.00 | 81 | 1022.4 |
| 20260903120006 | 44 | 0 | 0.0 | 0.0 | 0.00 | 0.02 | 0.00 | 82 | 1022.4 |
| 20260903115406 | 44 | 0 | 0.0 | 0.0 | 0.00 | 0.02 | 0.00 | 82 | 1022.4 |
| 20260903114505 | 44 | 0 | 0.0 | 0.0 | 0.00 | 0.02 | 0.00 | 82 | 1022.4 |
| 20260903113605 | 44 | 0 | 0.0 | 0.0 | 0.00 | 0.02 | 0.00 | 82 | 1022.4 |
| 20260903112705 | 44 | 0 | 0.0 | 0.0 | 0.00 | 0.02 | 0.00 | 82 | 1022.4 |
| 20260903111806 | 44 | 0 | 0.0 | 0.0 | 0.00 | 0.02 | 0.00 | 82 | 1022.4 |
| 20260903110906 | 44 | 0 | 0.0 | 0.0 | 0.00 | 0.02 | 0.00 | 82 | 1022.4 |
| 20260903110006 | 44 | 0 | 0.0 | 0.0 | 0.00 | 0.02 | 0.00 | 81 | 1022.4 |
| 20260903105406 | 44 | 0 | 0.0 | 0.0 | 0.00 | 0.02 | 0.00 | 82 | 1022.4 |
| 20260903104505 | 44 | 0 | 0.0 | 0.0 | 0.00 | 0.02 | 0.00 | 82 | 1022.4 |
| 20260903103606 | 44 | 0 | 0.0 | 0.0 | 0.00 | 0.02 | 0.00 | 81 | 1022.4 |
| 20260903102726 | 45 | 0 | 0.0 | 0.0 | 0.00 | 0.02 | 0.00 | 80 | 1022.4 |
| 20260903101805 | 45 | 0 | 0.0 | 0.0 | 0.00 | 0.02 | 0.00 | 81 | 1022.4 |
| 20260903100906 | 45 | 0 | 0.0 | 0.0 | 0.00 | 0.02 | 0.00 | 81 | 1022.4 |
| 20260903100010 | 45 | 0 | 0.0 | 0.0 | 0.00 | 0.02 | 0.00 | 81 | 1022.6 |
| 20260903095405 | 45 | 0 | 0.0 | 0.0 | 0.00 | 0.02 | 0.00 | 80 | 1022.6 |
| 20260903094505 | 46 | 0 | 0.0 | 0.0 | 0.00 | 0.02 | 0.00 | 79 | 1022.6 |
| 20260903093604 | 46 | 0 | 0.0 | 0.0 | 0.00 | 0.02 | 0.00 | 78 | 1022.6 |
| 20260903092706 | 46 | 0 | 0.0 | 0.0 | 0.00 | 0.02 | 0.00 | 79 | 1022.6 |
| 20260903091805 | 46 | 0 | 0.0 | 0.0 | 0.00 | 0.02 | 0.00 | 79 | 1022.6 |
| 20260903090926 | 46 | 0 | 0.0 | 0.0 | 0.00 | 0.02 | 0.00 | 78 | 1022.6 |
| 20260903090006 | 46 | 0 | 0.0 | 0.0 | 0.00 | 0.02 | 0.00 | 78 | 1022.6 |
| 20260903085405 | 46 | 0 | 0.0 | 0.0 | 0.00 | 0.02 | 0.00 | 78 | 1022.6 |
| 20260903084506 | 47 | 0 | 0.0 | 0.0 | 0.00 | 0.02 | 0.00 | 77 | 1022.6 |
| 20260903083604 | 47 | 0 | 0.0 | 0.0 | 0.00 | 0.02 | 0.00 | 79 | 1022.6 |
| 20260903082705 | 47 | 0 | 0.0 | 0.0 | 0.00 | 0.02 | 0.00 | 78 | 1022.6 |
| 20260903081826 | 47 | 0 | 0.0 | 0.0 | 0.00 | 0.02 | 0.00 | 79 | 1022.6 |
| 20260903080905 | 48 | 0 | 0.0 | 0.0 | 0.00 | 0.02 | 0.00 | 78 | 1022.6 |
| 20260903080006 | 48 | 0 | 0.0 | 0.0 | 0.00 | 0.02 | 0.00 | 76 | 1022.6 |
| 20260903075405 | 48 | 0 | 0.0 | 0.0 | 0.00 | 0.02 | 0.00 | 75 | 1022.6 |
| 20260903074505 | 48 | 155 | 0.0 | 1.0 | 0.00 | 0.02 | 0.00 | 75 | 1022.6 |
| 20260903073604 | 48 | 0 | 0.0 | 0.0 | 0.00 | 0.02 | 0.00 | 77 | 1022.6 |
| 20260903072705 | 49 | 0 | 0.0 | 0.0 | 0.00 | 0.02 | 0.00 | 76 | 1022.6 |
| 20260903071804 | 49 | 0 | 0.0 | 0.0 | 0.00 | 0.02 | 0.00 | 76 | 1022.6 |
| 20260903070905 | 49 | 0 | 0.0 | 0.0 | 0.00 | 0.02 | 0.00 | 75 | 1022.6 |
| 20260903070007 | 50 | 0 | 0.0 | 0.0 | 0.00 | 0.02 | 0.00 | 75 | 1022.6 |
| 20260903065425 | 50 | 0 | 0.0 | 0.0 | 0.00 | 0.02 | 0.00 | 76 | 1022.6 |
| 20260903064526 | 50 | 0 | 0.0 | 0.0 | 0.00 | 0.02 | 0.00 | 76 | 1022.6 |
| 20260903063604 | 51 | 0 | 0.0 | 0.0 | 0.00 | 0.02 | 0.00 | 78 | 1022.6 |
| 20260903062705 | 51 | 0 | 0.0 | 0.0 | 0.00 | 0.02 | 0.00 | 77 | 1022.6 |
| 20260903061804 | 52 | 0 | 0.0 | 0.0 | 0.00 | 0.02 | 0.00 | 78 | 1022.6 |
| 20260903060926 | 52 | 0 | 0.0 | 0.0 | 0.00 | 0.02 | 0.00 | 77 | 1022.6 |
| 20260903060011 | 52 | 0 | 0.0 | 0.0 | 0.00 | 0.02 | 0.00 | 76 | 1022.6 |
| 20260903055425 | 52 | 0 | 0.0 | 0.0 | 0.00 | 0.02 | 0.02 | 76 | 1022.6 |
| 20260903054505 | 53 | 0 | 0.0 | 0.0 | 0.00 | 0.02 | 0.02 | 78 | 1022.6 |
| 20260903053604 | 53 | 0 | 0.0 | 0.0 | 0.00 | 0.02 | 0.02 | 78 | 1022.6 |
| 20260903052705 | 53 | 0 | 0.0 | 0.0 | 0.00 | 0.02 | 0.02 | 78 | 1022.6 |
| 20260903051803 | 53 | 0 | 0.0 | 0.0 | 0.00 | 0.02 | 0.02 | 80 | 1022.6 |
| 20260903050905 | 53 | 0 | 0.0 | 0.0 | 0.00 | 0.02 | 0.02 | 79 | 1022.6 |
| 20260903050004 | 53 | 0 | 0.0 | 0.0 | 0.00 | 0.02 | 0.02 | 79 | 1022.6 |
| 20260903045425 | 53 | 0 | 0.0 | 0.0 | 0.00 | 0.02 | 0.02 | 78 | 1022.6 |
| 20260903044505 | 53 | 0 | 0.0 | 0.0 | 0.00 | 0.02 | 0.02 | 80 | 1022.6 |
| 20260903043604 | 53 | 0 | 0.0 | 0.0 | 0.00 | 0.02 | 0.02 | 80 | 1022.6 |
| 20260903042725 | 53 | 0 | 0.0 | 0.0 | 0.00 | 0.02 | 0.02 | 79 | 1022.6 |
| 20260903041803 | 53 | 0 | 0.0 | 0.0 | 0.00 | 0.02 | 0.02 | 80 | 1022.6 |
| 20260903040905 | 53 | 0 | 0.0 | 0.0 | 0.00 | 0.02 | 0.02 | 80 | 1022.6 |
| 20260903040010 | 53 | 0 | 0.0 | 0.0 | 0.00 | 0.02 | 0.02 | 80 | 1022.6 |
| 20260903035409 | 53 | 0 | 0.0 | 0.0 | 0.00 | 0.02 | 0.02 | 80 | 1022.6 |
| 20260903034508 | 54 | 0 | 0.0 | 0.0 | 0.00 | 0.02 | 0.02 | 81 | 1022.6 |
| 20260903033609 | 54 | 0 | 0.0 | 0.0 | 0.00 | 0.02 | 0.02 | 81 | 1022.6 |
| 20260903032729 | 54 | 0 | 0.0 | 0.0 | 0.00 | 0.02 | 0.02 | 81 | 1022.6 |
| 20260903031809 | 54 | 0 | 0.0 | 0.0 | 0.00 | 0.02 | 0.02 | 81 | 1022.6 |
| 20260903030908 | 54 | 0 | 0.0 | 0.0 | 0.00 | 0.02 | 0.02 | 83 | 1022.6 |